Station CRVA2 - 9454050 - Cordova, AK Image indicating link to RSS feed of recent meteorological observations for station CRVA2


Conditions at CRVA2 as of
(10:00 pm AKDT on 04/17/2024)
0600 GMT on 04/18/2024:
     

Click on the graph icon in the table below to see a time series plot of the last five days of that observation.

5-day plot - Wind Direction Wind Direction (WDIR):NNW ( 330 deg true )
5-day plot - Wind Speed Wind Speed (WSPD): 8.9 kts
5-day plot - Wind Gust Wind Gust (GST): 14.0 kts
5-day plot - Atmospheric Pressure Atmospheric Pressure (PRES):30.42 in
5-day plot - Pressure Tendency Pressure Tendency (PTDY):+0.03 in ( Rising )
5-day plot - Air Temperature Air Temperature (ATMP): 48.7 °F
5-day plot - Water Temperature Water Temperature (WTMP): 42.6 °F
5-day plot - Wind Chill Wind Chill (CHILL): 44.4 °F
5-day plot - Wind Speed at 10 Meters Wind Speed at 10 meters (WSPD10M): 9.7 kts
5-day plot - Wind Speed at 20 Meters Wind Speed at 20 meters (WSPD20M): 9.7 kts
5-day plot -  Wind Speed, Wind Gust and Atmospheric Pressure Combined plot of Wind Speed, Gust, and Air Pressure
NOS Water Level Observation Network Water Level
Previous observations
TIME
(AKDT)
5-day plot - Wind Direction
WDIR
 
5-day plot - Wind Speed
WSPD
kts
5-day plot - Wind Gust
GST
kts
5-day plot - Wave Height
WVHT
ft
5-day plot - Dominant Wave Period
DPD
sec
5-day plot - Average Wave Period
APD
sec
5-day plot - Mean Wave Direction
MWD
 
5-day plot - Atmospheric Pressure
PRES
in
5-day plot - Pressure Tendency
PTDY
in
5-day plot - Air Temperature
ATMP
°F
5-day plot - Water Temperature
WTMP
°F
5-day plot - Dew Point
DEWP
°F
5-day plot - Salinity
SAL
psu
5-day plot - Visibility
VIS
nmi
5-day plot - Tide (above MLLW)
TIDE
ft
2024-04-17 09:54 pm W 7.0 15.9----30.42- 48.7 42.6----
2024-04-17 09:48 pm N 9.9 14.0----30.42- 48.9 42.6----
2024-04-17 09:42 pm N 5.1 12.0----30.42- 48.9 42.6----
2024-04-17 09:36 pm W 6.0 17.1----30.42- 48.4 42.6----
2024-04-17 09:30 pm N 11.1 15.9----30.41- 48.9 42.6----
2024-04-17 09:24 pm N 4.1 12.0----30.42- 48.7 42.6----
2024-04-17 09:18 pm N 7.0 14.0----30.41- 48.7 42.6----
2024-04-17 09:12 pm NW 5.1 13.0----30.41- 48.6 42.6----
2024-04-17 09:06 pm N 9.9 17.1----30.41- 48.7 42.6----
2024-04-17 09:00 pmNNW 8.0 18.1----30.42+0.01 48.6 42.6----
2024-04-17 08:54 pm W 2.9 19.0----30.41- 48.7 42.6----
2024-04-17 08:48 pmNNW 8.9 17.1----30.41- 48.6 42.6----
2024-04-17 08:42 pm N 8.9 15.0----30.41- 48.9 42.6----
2024-04-17 08:36 pm S 2.9 13.0----30.40- 48.6 42.6----
2024-04-17 08:30 pmNNE 6.0 12.0----30.41- 48.9 42.6----
2024-04-17 08:24 pm NE 2.9 12.0----30.41- 49.1 42.6----
2024-04-17 08:18 pm NW 8.0 14.0----30.41- 49.1 42.6----
2024-04-17 08:12 pmNNW 5.1 13.0----30.41- 49.3 42.6----
2024-04-17 08:06 pm S 2.9 6.0----30.40- 49.1 42.6----
2024-04-17 08:00 pmNNE 8.0 12.0----30.40-0.01 49.3 42.6----
2024-04-17 07:54 pm NW 4.1 8.9----30.40- 49.3 42.6----
2024-04-17 07:48 pm N 8.0 18.1----30.40- 49.1 42.8----
2024-04-17 07:42 pm N 4.1 13.0----30.40- 49.3 42.6----
2024-04-17 07:36 pmNNE 6.0 13.0----30.40- 49.5 42.6----
2024-04-17 07:30 pmNNE 4.1 17.1----30.40- 49.6 42.8----
2024-04-17 07:24 pm N 8.9 13.0----30.40- 49.3 42.8----
2024-04-17 07:18 pm N 13.0 25.1----30.39- 49.1 42.8----
2024-04-17 07:12 pm N 6.0 14.0----30.39- 49.3 43.0----
2024-04-17 07:06 pm W 8.0 19.0----30.39- 49.3 43.2----
2024-04-17 07:00 pmNNE 7.0 15.0----30.40-0.02 49.5 43.2----
2024-04-17 06:54 pm N 8.0 17.1----30.40- 49.6 43.2----
2024-04-17 06:48 pm N 6.0 19.0----30.40- 49.6 43.2----
2024-04-17 06:42 pmNNE 7.0 15.0----30.40- 49.6 43.0----
2024-04-17 06:36 pmNNW 11.1 15.0----30.40- 49.6 43.2----
2024-04-17 06:30 pmNNW 8.0 18.1----30.40- 49.6 43.0----
2024-04-17 06:24 pmNNW 9.9 18.1----30.40- 49.5 43.0----
2024-04-17 06:18 pm N 11.1 17.1----30.40- 49.6 43.0----
2024-04-17 06:12 pm N 13.0 20.0----30.40- 49.6 43.0----
2024-04-17 06:06 pm N 8.0 17.1----30.41- 49.6 43.0----
2024-04-17 06:00 pm NW 5.1 14.0----30.40-0.02 49.8 43.0----
2024-04-17 05:54 pm N 15.9 27.0----30.40- 49.6 42.8----
2024-04-17 05:48 pmENE 8.9 21.0----30.41- 49.6 42.8----
2024-04-17 05:42 pm NW 4.1 19.0----30.40- 50.0 42.6----
2024-04-17 05:36 pm N 15.9 25.1----30.40- 49.5 42.6----
2024-04-17 05:30 pm NW 8.9 28.0----30.41- 49.8 42.6----
2024-04-17 05:24 pm N 15.0 29.9----30.41- 49.8 42.6----
2024-04-17 05:18 pm S 7.0 18.1----30.41- 50.2 42.4----
2024-04-17 05:12 pm N 8.0 28.9----30.41- 49.8 42.4----
2024-04-17 05:06 pm E 6.0 24.1----30.41- 50.4 42.6----
2024-04-17 05:00 pmENE 15.9 35.0----30.42-0.01 50.0 42.6----
2024-04-17 04:54 pm NW 7.0 28.0----30.42- 50.2 42.6----
2024-04-17 04:48 pmENE 8.9 32.1----30.42- 50.0 42.6----
2024-04-17 04:42 pmNNW 6.0 26.0----30.42- 49.8 42.6----
2024-04-17 04:36 pmNNE 6.0 22.9----30.42- 50.0 42.8----
2024-04-17 04:30 pm NE 13.0 29.9----30.41- 49.8 42.6----
2024-04-17 04:24 pmNNE 12.0 33.0----30.41- 49.8 42.6----
2024-04-17 04:18 pm N 12.0 18.1----30.42- 49.6 42.6----
2024-04-17 04:12 pm W 4.1 15.0----30.42- 50.2 42.6----
2024-04-17 04:06 pmNNE 8.0 18.1----30.42- 49.6 42.6----
2024-04-17 04:00 pm W 2.9 15.9----30.42+0.00 49.8 42.6----
2024-04-17 03:54 pm W 6.0 15.0----30.42- 49.6 42.6----
2024-04-17 03:48 pm S 4.1 26.0----30.42- 50.0 42.6----
2024-04-17 03:42 pm N 8.0 21.0----30.42- 49.1 42.6----
2024-04-17 03:36 pm NE 9.9 28.0----30.42- 49.1 42.6----
2024-04-17 03:30 pmNNE 8.9 22.9----30.43- 49.1 42.6----
2024-04-17 03:24 pm NE 8.9 28.9----30.43- 49.1 42.6----
2024-04-17 03:18 pm N 8.0 22.0----30.42- 48.7 42.8----
2024-04-17 03:12 pmNNE 7.0 20.0----30.43- 49.1 42.8----
2024-04-17 03:06 pmNNW 4.1 28.9----30.43- 49.1 42.8----
2024-04-17 03:00 pm N 14.0 22.0----30.42+0.00 48.7 42.8----
2024-04-17 02:54 pm N 9.9 22.9----30.42- 48.7 42.6----
2024-04-17 02:48 pmWNW 5.1 15.9----30.42- 49.5 42.8----
2024-04-17 02:42 pm NW 8.9 22.0----30.42- 48.9 42.8----
2024-04-17 02:36 pm N 8.9 22.9----30.42- 48.9 42.8----
2024-04-17 02:30 pm NW 7.0 15.0----30.43- 48.9 42.6----
2024-04-17 02:24 pm NW 8.9 17.1----30.42- 49.1 42.6----
2024-04-17 02:18 pmWSW 5.1 15.9----30.43- 48.9 42.6----
2024-04-17 02:12 pm W 8.0 19.0----30.43- 49.1 42.6----
2024-04-17 02:06 pm W 8.9 15.9----30.42- 48.9 42.6----
2024-04-17 02:00 pm N 14.0 18.1----30.42+0.00- 42.4----
2024-04-17 01:54 pmWNW 5.1 18.1----30.42-- 42.4----
2024-04-17 01:48 pm N 11.1 18.1----30.43- 48.0 42.4----
2024-04-17 01:42 pmNNW 8.0 13.0----30.42- 47.8 42.4----
2024-04-17 01:36 pmNNW 8.9 28.9----30.42- 47.8 42.4----
2024-04-17 01:30 pmWNW 8.9 19.0----30.42- 47.8 42.4----
2024-04-17 01:24 pmNNW 12.0 22.9----30.42- 47.7 42.4----
2024-04-17 01:18 pm N 8.0 15.9----30.42- 47.5 42.4----
2024-04-17 01:12 pm NW 6.0 13.0----30.42- 47.8 42.4----
2024-04-17 01:06 pm N 6.0 14.0----30.42- 47.1 42.4----
2024-04-17 01:00 pm NW 8.9 20.0----30.42-0.01 46.9 42.4----
2024-04-17 12:54 pm NE 2.9 17.1----30.42- 47.3 42.3----
2024-04-17 12:48 pmWNW 5.1 15.9----30.42- 47.7 42.3----
2024-04-17 12:42 pm SE 1.9 5.1----30.43- 48.2 42.3----
2024-04-17 12:36 pmNNE 1.9 8.0----30.43- 47.7 42.3----
2024-04-17 12:30 pm N 5.1 22.0----30.42- 46.9 42.3----
2024-04-17 12:24 pm S 6.0 9.9----30.42- 47.5 42.3----
2024-04-17 12:18 pm S 5.1 8.9----30.42- 47.5 42.3----
2024-04-17 12:12 pm SW 6.0 12.0----30.42- 46.9 42.3----
2024-04-17 12:06 pm NW 6.0 11.1----30.42- 46.9 42.3----
2024-04-17 12:00 pm NW 8.0 12.0----30.42-0.01 46.8 42.3----
2024-04-17 11:54 am NW 8.0 13.0----30.42- 46.8 42.3----
2024-04-17 11:48 am N 5.1 8.9----30.43- 46.0 42.3----
2024-04-17 11:42 am NW 6.0 8.9----30.43- 46.2 42.3----
2024-04-17 11:36 amNNW 5.1 11.1----30.42- 45.9 42.3----
2024-04-17 11:30 am NW 5.1 13.0----30.42- 45.5 42.3----
2024-04-17 11:24 am- 0.0 4.1----30.43- 44.4 42.3----
2024-04-17 11:18 amNNE 1.9 6.0----30.43- 43.7 42.1----
2024-04-17 11:12 am NW 2.9 7.0----30.43- 42.8 42.1----
2024-04-17 11:06 am E 1.9 4.1----30.43- 41.5 42.1----
2024-04-17 11:00 am NE 1.9 7.0----30.43-0.01 41.0 42.1----
2024-04-17 10:54 amNNW 5.1 7.0----30.43- 40.8 42.1----
2024-04-17 10:48 amNNE 5.1 8.9----30.43- 40.6 42.1----
2024-04-17 10:42 am N 4.1 6.0----30.43- 41.4 42.1----
2024-04-17 10:36 am- 0.0 1.9----30.43- 42.4 42.1----
2024-04-17 10:30 am NE 1.9 2.9----30.43- 40.8 42.1----
2024-04-17 10:24 amNNE 2.9 4.1----30.43- 40.1 42.1----
2024-04-17 10:18 am N 4.1 5.1----30.44- 39.6 42.1----
2024-04-17 10:12 amNNE 2.9 6.0----30.44- 39.6 42.1----
2024-04-17 10:06 amNNE 4.1 5.1----30.44- 39.0 42.1----
2024-04-17 10:00 amNNE 6.0 8.0----30.44+0.00 39.0 42.3----
2024-04-17 09:54 am NE 4.1 7.0----30.43- 37.9 42.1----
2024-04-17 09:48 am NE 4.1 6.0----30.43- 39.4 42.3----
2024-04-17 09:42 am N 4.1 7.0----30.43- 37.8 42.3----
2024-04-17 09:36 am NE 2.9 7.0----30.43- 37.4 42.1----
2024-04-17 09:30 amNNE 7.0 8.0----30.43- 36.7 42.1----
2024-04-17 09:24 amNNE 6.0 7.0----30.43- 36.7 42.1----
2024-04-17 09:18 am N 5.1 8.0----30.43- 37.0 42.1----
2024-04-17 09:12 am N 7.0 8.0----30.43- 36.5 42.1----
2024-04-17 09:06 am N 8.0 11.1----30.43- 36.1 42.1----
2024-04-17 09:00 am N 7.0 8.9----30.43-0.01 36.0 42.1----
2024-04-17 08:54 amNNE 7.0 8.9----30.43- 36.1 42.1----
2024-04-17 08:48 amNNE 7.0 8.0----30.43- 36.1 42.1----
2024-04-17 08:42 amNNE 6.0 7.0----30.44- 36.1 42.1----
2024-04-17 08:36 amNNE 5.1 6.0----30.44- 36.1 42.1----
2024-04-17 08:30 amENE 2.9 5.1----30.44- 36.1 42.1----
2024-04-17 08:24 am N 4.1 5.1----30.44- 36.0 42.1----
2024-04-17 08:18 amNNE 1.9 5.1----30.44- 35.6 42.1----
2024-04-17 08:12 am N 5.1 6.0----30.44- 35.8 42.1----
2024-04-17 08:06 am E 1.9 5.1----30.44- 35.6 42.1----
2024-04-17 08:00 am- 0.0 1.9----30.44-0.01 35.8 42.1----
2024-04-17 07:54 am- 0.0 2.9----30.44- 35.4 42.1----
2024-04-17 07:48 amENE 1.9 2.9----30.44- 35.4 42.1----
2024-04-17 07:42 am N 1.0 1.9----30.44- 35.2 42.1----
2024-04-17 07:36 am- 0.0 1.9----30.44- 35.2 42.1----
2024-04-17 07:30 am- 0.0 1.9----30.44- 35.4 42.1----
2024-04-17 07:24 am- 0.0 1.9----30.44- 35.2 42.1----
2024-04-17 07:18 amENE 1.9 4.1----30.44- 35.1 41.9----
2024-04-17 07:12 am NE 1.9 5.1----30.44- 35.1 42.1----
2024-04-17 07:06 am NE 1.9 5.1----30.44- 35.4 42.1----
2024-04-17 07:00 am NW 4.1 6.0----30.43-0.04 35.6 42.1----
2024-04-17 06:54 am N 2.9 5.1----30.44- 35.6 41.9----
2024-04-17 06:48 am NE 1.9 7.0----30.44- 35.4 41.9----
2024-04-17 06:42 am N 6.0 6.0----30.44- 35.6 41.9----
2024-04-17 06:36 amNNW 6.0 7.0----30.44- 35.8 41.9----
2024-04-17 06:30 am NE 2.9 7.0----30.44- 37.4 41.9----
2024-04-17 06:24 am SW 1.0 2.9----30.44- 37.4 41.9----
2024-04-17 06:18 am SW 1.9 4.1----30.44- 36.0 41.9----
2024-04-17 06:12 amSSW 2.9 5.1----30.44- 34.9 41.9----
2024-04-17 06:06 amSSW 1.9 4.1----30.44- 34.9 41.9----
2024-04-17 06:00 am SW 1.9 2.9----30.45-0.04 35.4 42.1----
2024-04-17 05:54 am- 0.0 4.1----30.45- 34.5 42.1----
2024-04-17 05:48 am E 1.0 2.9----30.45- 34.2 42.1----
2024-04-17 05:42 am- 0.0 2.9----30.45- 33.6 42.1----
2024-04-17 05:36 am- 0.0 2.9----30.45- 33.8 42.1----
2024-04-17 05:30 am- 0.0 1.9----30.45- 33.6 42.1----
2024-04-17 05:24 am S 1.9 4.1----30.45- 33.6 42.1----
2024-04-17 05:18 am E 1.0 2.9----30.45- 32.9 42.1----
2024-04-17 05:12 amSSW 1.0 1.9----30.45- 33.4 42.1----
2024-04-17 05:06 am E 1.0 1.9----30.45- 33.1 41.9----
2024-04-17 05:00 am- 0.0 1.9----30.45-0.05 34.5 42.1----
2024-04-17 04:54 am- 0.0 2.9----30.46- 34.0 42.1----
2024-04-17 04:48 amNNE 1.0 1.9----30.46- 34.2 42.1----
2024-04-17 04:42 amSSE 1.0 2.9----30.46- 33.8 42.1----
2024-04-17 04:36 am- 0.0 1.9----30.46- 34.0 42.1----
2024-04-17 04:24 am- 0.0 2.9----30.46- 34.9 42.1----
2024-04-17 04:18 am- 0.0 1.9----30.47- 35.1 41.9----
2024-04-17 04:12 amSSE 2.9 4.1----30.47- 34.9 41.9----
2024-04-17 04:06 am E 1.9 2.9----30.47- 34.5 42.1----
2024-04-17 04:00 am- 0.0 4.1----30.47-0.04 34.5 42.1----
2024-04-17 03:54 am- 0.0 1.9----30.47- 34.7 42.1----
2024-04-17 03:48 am- 0.0 1.9----30.47- 34.9 42.1----
2024-04-17 03:42 am SW 1.0 2.9----30.47- 34.5 42.1----
2024-04-17 03:36 am E 2.9 2.9----30.48- 34.3 42.1----
2024-04-17 03:30 amESE 1.9 4.1----30.48- 34.5 42.1----
2024-04-17 03:24 am E 1.0 1.9----30.48- 34.5 42.1----
2024-04-17 03:18 am E 1.0 4.1----30.48- 34.3 42.1----
2024-04-17 03:12 am S 1.0 2.9----30.49- 34.5 42.1----
2024-04-17 03:06 am N 1.0 4.1----30.49- 34.5 42.1----
2024-04-17 03:00 am SW 1.9 4.1----30.49-0.02 34.2 42.1----
2024-04-17 02:54 amESE 1.9 4.1----30.49- 34.0 42.1----
2024-04-17 02:48 amENE 1.9 2.9----30.49- 33.6 42.1----
2024-04-17 02:42 am- 0.0 1.9----30.50- 34.0 42.1----
2024-04-17 02:36 am S 1.9 1.9----30.50- 34.3 42.1----
2024-04-17 02:30 am S 1.0 2.9----30.50- 34.2 42.3----
2024-04-17 02:24 am- 0.0 1.9----30.50- 34.2 42.3----
2024-04-17 02:18 am- 0.0 1.9----30.50- 34.5 42.3----
2024-04-17 02:12 am- 0.0 2.9----30.50- 34.5 42.3----
2024-04-17 02:06 am- 0.0 2.9----30.50- 34.9 42.3----
2024-04-17 02:00 am E 1.9 4.1----30.50+0.00 34.3 42.3----
2024-04-17 01:54 am- 0.0 1.9----30.50- 34.3 42.3----
2024-04-17 01:48 am E 1.0 1.9----30.50- 35.1 42.3----
2024-04-17 01:42 am E 1.0 1.9----30.50- 34.5 42.3----
2024-04-17 01:36 am E 1.9 4.1----30.50- 34.0 42.3----
2024-04-17 01:30 am- 0.0 1.0----30.50- 34.2 42.3----
2024-04-17 01:24 am- 0.0 1.9----30.50- 34.5 42.3----
2024-04-17 01:18 am- 0.0 1.0----30.50- 34.5 42.3----
2024-04-17 01:12 am- 0.0 1.9----30.51- 34.3 42.3----
2024-04-17 01:06 am E 1.0 1.9----30.50- 34.9 42.3----
2024-04-17 01:00 am E 1.9 2.9----30.51+0.00 34.7 42.3----
2024-04-17 12:54 amENE 1.0 2.9----30.51- 34.2 42.3----
2024-04-17 12:48 amNNE 1.0 1.9----30.51- 34.3 42.3----
2024-04-17 12:42 am- 0.0 0.0----30.51- 34.7 42.3----
2024-04-17 12:36 am- 0.0 1.0----30.51- 34.9 42.3----
2024-04-17 12:30 am- 0.0 0.0----30.51- 34.5 42.3----
2024-04-17 12:24 am- 0.0 1.0----30.51- 34.3 42.3----
2024-04-17 12:18 am- 0.0 1.0----30.51- 34.5 42.3----
2024-04-17 12:12 am- 0.0 1.0----30.51- 34.3 42.3----
2024-04-17 12:06 am- 0.0 0.0----30.51- 34.5 42.3----
2024-04-17 12:00 am- 0.0 0.0----30.51+0.00 34.7 42.3----
2024-04-16 11:54 pm- 0.0 1.0----30.50- 35.2 42.3----
2024-04-16 11:48 pm- 0.0 1.0----30.50- 34.7 42.3----
2024-04-16 11:42 pm- 0.0 1.0----30.50- 34.9 42.3----
2024-04-16 11:36 pm- 0.0 1.0----30.50- 34.7 42.3----
2024-04-16 11:30 pmENE 1.0 1.9----30.50- 34.7 42.3----
2024-04-16 11:24 pm- 0.0 0.0----30.50- 35.1 42.3----
2024-04-16 11:18 pm- 0.0 0.0----30.50- 35.2 42.3----
2024-04-16 11:12 pm- 0.0 0.0----30.50- 35.4 42.3----
2024-04-16 11:06 pm- 0.0 1.0----30.50- 35.8 42.3----
2024-04-16 11:00 pm- 0.0 1.0----30.50-0.01 35.8 42.3----
2024-04-16 10:54 pmENE 1.0 1.9----30.50- 35.8 42.3----
2024-04-16 10:48 pmENE 1.9 4.1----30.50- 35.8 42.3----
2024-04-16 10:42 pmENE 1.9 2.9----30.50- 36.3 42.3----
2024-04-16 10:36 pm NE 2.9 4.1----30.50- 35.6 42.3----
2024-04-16 10:30 pmENE 1.9 2.9----30.50- 36.9 42.3----
2024-04-16 10:24 pmENE 1.0 2.9----30.50- 37.0 42.3----
2024-04-16 10:18 pm NE 2.9 4.1----30.50- 37.0 42.3----
2024-04-16 10:12 pm E 2.9 6.0----30.50- 37.6 42.3----
2024-04-16 10:06 pmESE 4.1 5.1----30.50- 39.4 42.3----
2024-04-16 10:00 pmESE 5.1 6.0----30.50-0.02 39.2 42.3----
2024-04-16 09:54 pmESE 4.1 6.0----30.50- 39.0 42.3----